Dewpoint
63 61 63 63 62 62 61 61 60 61 60 61 61 62 62 62 62 64 64 64 66 68 68 67 66 66 67 66 66 65 65 64 64 63 62 62 61 60 60 59 59 58 58
64 63 61 62 61 62 61 61 60 62 61 62 62 62 62 62 61 62 65 64 65 67 67 67 66 66 66 66 66 64 64 63 62 62 61 60 59 58 57 56 56 56 56
66 64 63 62 62 61 63 61 63 62 63 62 61 63 62 62 62 62 64 65 65 65 66 66 67 67 66 66 65 64 63 62 61 61 59 58 56 55 54 54 53 53 53
66 66 65 63 62 63 63 62 63 62 61 62 61 61 62 62 62 62 62 64 65 65 65 66 66 66 66 66 64 63 62 61 60 58 57 56 54 52 51 51 50 50 50
66 67 65 65 64 64 63 63 62 62 61 61 60 61 60 61 62 62 62 63 65 65 65 65 65 65 65 65 64 63 61 59 58 57 55 54 51 50 50 50 51 51 50
67 67 66 65 65 64 64 64 62 63 61 61 59 60 62 63 63 62 62 63 63 64 65 65 64 64 64 64 64 62 61 58 56 55 53 51 50 49 49 50 49 50 50
68 66 67 67 66 64 63 64 64 63 62 62 61 62 60 60 61 62 63 63 63 64 65 65 64 64 63 63 62 61 60 57 55 53 52 50 49 50 49 49 48 48 48
68 67 68 67 65 65 65 64 64 63 63 63 61 60 58 57 58 59 59 59 59 59 61 63 63 62 62 61 61 60 59 56 54 53 51 49 50 49 49 48 48 47 47
69 68 67 67 67 66 65 65 64 63 62 64 62 59 55 54 56 57 57 57 56 56 56 56 59 60 61 60 59 59 57 55 55 52 49 49 49 49 47 46 48 49 48
68 68 67 67 67 68 66 65 66 65 64 62 62 61 59 57 55 53 52 52 53 53 53 54 54 56 58 58 58 57 56 55 54 51 49 50 50 48 47 47 48 49 49
67 67 67 67 67 67 66 66 66 65 64 62 60 59 57 55 54 53 53 51 49 51 51 51 52 54 56 57 57 56 55 53 52 51 50 51 49 47 47 46 47 47 46
66 67 67 67 67 67 66 66 66 66 65 63 61 59 57 55 53 53 52 50 50 49 49 50 50 52 54 55 55 54 53 51 51 52 52 52 50 49 47 47 46 44 44
63 64 65 65 65 65 64 64 64 64 64 63 61 59 59 57 55 54 53 49 48 46 46 47 49 51 52 53 53 53 51 50 51 51 52 52 49 48 47 45 43 41 41
62 63 62 63 63 63 62 62 62 62 62 61 61 60 59 59 58 55 53 50 46 44 44 45 46 48 49 51 51 51 49 49 49 49 51 49 47 45 44 42 40 39 38
63 62 62 62 61 62 62 61 60 60 60 60 59 60 59 59 58 56 54 51 52 48 45 44 44 46 48 48 49 48 48 48 48 47 46 46 45 43 42 39 38 36 36
61 61 60 60 60 59 59 58 57 57 57 57 57 56 56 57 57 56 54 52 51 51 48 44 43 44 47 46 47 46 47 46 45 44 44 44 42 41 39 36 35 34 33
60 60 59 58 57 57 56 55 55 54 54 54 55 55 54 55 54 54 54 52 51 50 48 43 43 44 44 44 44 45 45 44 43 43 42 41 41 38 35 34 31 31 32
58 57 56 55 54 54 54 54 53 52 52 52 53 53 53 54 53 53 53 52 51 50 47 43 41 42 42 43 43 43 42 42 41 42 41 40 38 35 33 31 29 29 30
54 53 53 52 52 52 52 52 51 51 51 51 51 50 51 51 51 52 52 51 51 50 46 42 40 42 41 41 41 41 40 40 40 40 39 37 35 32 31 29 28 29 28
52 52 52 52 51 51 50 50 50 49 49 49 50 49 49 50 50 50 49 49 49 48 45 42 40 40 39 40 40 37 36 37 37 37 36 36 33 31 30 28 27 27 27
51 52 51 51 51 50 48 49 49 49 48 48 48 48 48 48 48 47 48 47 48 46 43 41 38 37 36 36 35 35 32 31 31 32 32 33 31 30 29 28 27 27 26
48 47 47 47 46 46 46 46 46 46 46 46 46 46 46 46 46 45 45 45 46 44 42 40 38 36 35 35 34 33 31 30 28 32 32 31 30 29 29 28 27 26 25
44 44 43 44 43 44 45 46 45 45 45 45 44 44 44 44 43 43 42 42 42 43 43 41 38 37 35 35 34 33 32 32 31 32 31 29 31 29 28 28 27 26 25
40 41 41 41 40 40 42 44 44 44 43 43 43 43 43 43 42 41 41 40 39 39 40 40 41 40 38 36 34 34 33 32 33 33 33 28 32 30 30 29 28 27 26
36 37 39 41 41 42 43 41 41 42 41 40 40 39 40 40 40 41 39 38 38 38 39 40 40 39 38 36 35 33 31 31 29 30 34 32 32 31 29 28 28 27 26
38 38 38 40 42 43 44 42 41 39 37 37 38 38 39 39 38 38 37 37 36 36 37 38 39 39 38 36 36 34 33 31 30 29 33 31 31 29 26 28 26 27 25
Wind_Speed
16 16 15 16 15 15 14 15 15 15 15 15 3 2 2 6 6 4 10 13 14 14 13 13 13 14 14 15 14 11 10 10 11 11 12 11 11 10 9 9 9 8 7
14 16 14 17 18 16 16 15 16 14 14 8 9 5 5 8 5 6 10 10 10 12 12 12 15 14 15 16 18 16 15 14 14 13 12 11 8 8 9 10 9 7 7
15 17 16 14 16 17 19 18 14 13 12 9 10 12 8 9 6 6 6 11 11 13 15 16 16 17 19 20 18 18 16 14 13 13 11 11 11 9 6 5 5 4 5
18 17 16 15 14 13 10 4 6 9 10 9 9 9 11 8 10 7 4 6 12 11 13 16 17 19 19 21 20 19 17 15 14 13 12 10 9 8 7 6 5 6 4
22 13 15 14 17 13 14 13 11 8 11 11 11 11 11 11 2 2 7 8 8 9 11 14 17 18 19 21 20 18 16 14 14 13 14 13 13 13 13 11 10 10 10
22 17 14 14 16 15 14 14 13 13 12 14 10 2 3 3 4 1 4 9 4 8 8 11 13 14 21 21 21 20 20 18 16 15 14 14 12 11 11 11 11 10 9
23 20 14 14 9 14 13 14 13 15 13 6 4 4 4 4 4 4 2 2 2 2 8 11 11 11 16 22 20 22 22 21 20 18 17 15 14 13 12 10 9 7 6
22 20 14 15 14 14 14 15 15 12 9 8 5 3 4 6 8 9 3 5 5 4 5 5 12 15 16 15 18 22 23 22 21 19 17 18 17 14 14 11 8 7 6
21 19 18 14 12 14 16 14 13 16 13 6 9 6 4 10 2 3 8 8 8 8 7 6 7 8 13 17 19 20 22 22 22 23 22 20 17 14 12 14 11 12 9
18 16 15 14 12 11 13 12 14 14 10 13 5 8 3 3 6 5 3 6 5 8 8 8 7 5 5 7 15 19 23 26 24 22 22 21 19 18 15 12 14 14 15
16 16 14 15 13 12 14 13 10 13 14 10 11 5 5 4 4 8 10 6 3 6 7 9 9 9 11 13 15 15 22 21 23 25 24 23 21 18 15 12 9 9 11
11 13 14 13 14 12 12 11 11 14 15 13 14 12 11 6 10 10 12 9 9 5 6 8 10 11 10 13 15 19 23 23 20 17 15 23 27 22 18 14 7 6 9
12 15 14 13 12 12 10 8 7 6 8 11 12 12 11 12 7 8 7 6 10 6 5 7 10 10 10 11 14 23 24 24 23 18 14 20 26 22 19 14 11 7 8
13 13 13 12 9 9 8 7 6 5 4 4 6 8 9 10 10 11 9 10 7 9 7 9 6 7 6 4 7 20 19 25 22 20 19 21 27 24 19 15 12 11 8
13 13 13 13 11 10 10 9 6 5 7 6 5 6 7 8 7 10 10 10 11 9 8 7 8 7 6 4 10 8 17 23 26 28 33 26 27 21 20 15 13 12 10
14 15 14 13 12 10 8 6 4 4 4 4 5 5 6 5 8 10 12 13 12 12 11 5 6 3 8 11 12 13 13 23 29 28 27 30 26 20 19 16 14 11 11
15 14 13 13 12 12 10 8 5 2 2 3 4 6 7 5 8 8 9 9 12 11 13 1 3 6 7 16 13 14 17 19 22 26 30 29 24 22 18 16 16 13 12
15 15 14 13 12 10 10 10 9 7 5 4 4 4 5 5 9 10 10 12 13 14 8 11 4 7 5 15 19 19 15 14 16 26 25 27 26 22 19 18 16 14 13
14 12 12 11 11 10 10 8 6 4 1 1 2 5 6 6 8 9 11 10 11 10 10 7 8 4 4 13 17 15 19 18 15 27 25 23 24 24 21 18 17 15 14
14 12 11 10 8 6 6 7 6 5 2 2 3 4 6 7 7 8 8 11 11 8 9 7 5 6 11 12 16 19 15 15 17 17 17 18 21 22 21 19 18 17 14
12 11 10 9 8 6 4 6 8 7 2 4 4 5 6 9 12 13 11 9 8 9 8 10 8 7 12 18 25 16 19 20 12 9 14 16 17 15 16 17 16 17 16
11 11 9 7 6 6 6 4 4 1 2 7 7 8 7 9 12 15 16 15 12 10 14 13 11 17 20 23 19 26 24 24 16 9 16 16 16 16 15 13 18 18 17
9 7 5 5 4 3 6 4 3 4 6 8 9 10 12 11 12 13 14 14 14 16 15 19 20 19 18 25 22 26 28 30 19 20 21 15 15 14 15 15 22 20 18
5 5 4 3 1 2 4 2 3 5 7 11 13 14 14 14 14 13 15 15 15 13 15 15 18 17 21 24 27 26 23 16 14 19 14 12 14 14 11 16 24 22 19
4 2 1 2 5 6 4 5 6 8 11 15 15 15 16 18 16 16 14 16 16 17 12 18 20 13 17 23 24 20 21 21 17 17 13 9 11 12 9 13 14 21 19
2 4 4 2 3 6 7 9 9 9 13 15 15 15 17 18 15 14 14 13 16 15 12 13 15 16 22 26 30 27 28 27 21 11 11 9 18 11 7 9 13 14 14
Wind_Direction
181 188 179 174 183 183 209 191 207 203 219 234 230 291 322 285 334 92 145 176 165 162 174 182 183 184 180 174 166 170 168 156 144 144 137 133 128 120 116 107 100 94 88
192 190 207 178 184 190 199 215 204 200 211 188 218 192 224 268 245 262 145 175 184 183 182 180 193 189 187 184 178 173 172 173 166 155 145 136 126 120 125 129 134 123 106
208 183 193 208 191 192 190 204 208 207 185 196 215 194 197 248 264 263 145 167 195 200 198 196 189 192 188 189 179 181 175 171 171 153 145 149 146 137 121 95 95 104 101
217 190 187 208 198 178 180 220 258 199 195 205 205 206 196 216 234 228 271 206 177 194 206 205 194 201 194 183 182 190 177 178 170 166 161 153 133 125 119 116 104 87 88
201 196 204 201 192 185 170 185 233 227 202 212 215 201 215 200 202 192 246 258 189 194 202 212 208 204 194 184 182 185 182 178 183 177 167 160 149 143 138 126 117 105 92
196 205 203 227 187 184 169 175 205 224 211 209 213 150 174 131 40 170 259 273 232 233 218 200 207 209 186 182 181 186 180 182 183 179 168 157 145 135 127 118 106 94 87
189 197 200 217 198 167 178 183 205 237 218 214 136 62 352 345 305 252 150 252 289 258 217 197 188 187 194 190 186 187 187 185 181 172 164 153 142 128 109 96 92 85 85
182 190 198 201 199 192 200 193 198 217 226 203 158 119 257 268 253 252 277 272 282 316 303 237 202 194 196 198 188 192 194 185 181 171 167 152 141 138 124 110 94 88 55
174 186 188 190 194 189 199 194 197 215 207 181 174 162 183 230 199 177 216 216 221 235 244 259 269 250 212 193 188 192 190 178 183 171 163 158 148 138 129 127 109 122 97
164 175 183 192 185 182 199 200 192 207 182 192 198 208 175 155 223 274 239 248 227 242 241 242 248 258 228 205 195 181 188 182 175 169 169 160 153 141 133 122 105 94 94
158 171 174 177 186 191 202 204 200 201 199 188 190 168 198 196 205 232 265 257 286 247 234 236 233 228 202 192 189 190 184 174 171 170 171 161 146 138 126 120 111 103 98
160 168 178 178 183 181 186 196 205 199 196 200 196 193 189 187 211 212 236 241 250 251 232 230 230 231 220 194 183 175 175 176 161 164 178 155 140 135 125 111 94 90 80
162 157 149 157 159 162 173 177 184 196 194 198 197 206 211 215 193 207 211 224 241 234 253 238 230 218 223 209 188 175 170 157 151 146 141 152 130 121 115 113 105 84 78
162 152 161 161 162 162 169 182 189 194 198 241 238 223 216 221 210 204 210 203 243 237 231 246 238 227 225 235 215 169 154 148 141 141 133 126 118 114 115 114 121 115 95
160 155 144 139 140 149 168 167 165 180 192 204 235 254 246 239 218 218 216 205 230 264 260 223 228 214 186 143 155 151 147 144 141 136 129 125 117 124 121 126 119 115 109
130 133 140 146 156 161 162 151 141 141 171 174 176 214 237 230 213 213 219 220 222 233 260 163 191 159 153 134 138 143 143 133 131 131 124 121 123 128 123 129 123 116 114
147 151 154 150 154 161 165 159 152 166 232 231 216 221 244 265 250 229 226 220 227 224 249 119 133 162 156 147 141 137 138 138 138 138 125 120 132 129 131 133 125 125 122
150 142 149 153 149 142 147 159 167 177 198 226 274 286 275 248 256 237 230 227 227 219 204 213 158 159 181 162 154 146 141 132 135 132 129 134 134 132 134 136 130 133 124
129 138 136 141 145 145 148 142 141 139 150 264 289 275 281 295 289 269 257 246 222 207 195 184 184 155 118 156 147 145 147 145 146 135 131 136 137 140 144 141 138 135 122
136 127 116 104 106 118 137 152 131 116 60 317 285 317 300 295 283 277 260 256 250 227 206 184 160 138 148 162 157 150 146 134 135 127 139 146 145 149 149 146 143 130 122
114 120 127 136 126 123 96 66 44 43 358 314 313 290 268 261 261 260 260 259 245 223 204 190 172 158 160 164 175 169 156 144 135 145 152 154 150 150 155 151 143 134 146
137 133 141 139 129 121 125 122 121 253 297 276 281 282 289 286 277 274 270 258 246 227 217 199 189 189 190 184 174 166 157 156 157 186 149 157 157 157 161 161 150 159 154
120 126 135 146 158 173 161 172 142 235 255 261 277 279 282 271 278 284 283 280 272 254 221 203 202 202 190 190 178 177 176 171 169 160 150 156 163 163 175 171 162 168 162
141 132 118 105 96 213 175 156 212 251 269 272 264 262 267 274 270 272 279 280 275 263 255 235 231 218 203 187 186 187 167 148 126 153 155 153 169 172 155 152 165 171 168
48 63 170 198 252 288 323 317 323 293 276 270 263 260 257 265 266 260 256 265 275 271 240 234 226 205 180 172 167 147 152 148 147 162 182 140 153 133 131 153 169 176 172
279 293 300 311 287 289 305 296 290 284 281 278 283 272 265 259 258 249 243 248 266 269 245 233 214 189 172 172 172 178 162 163 153 145 182 139 154 133 153 171 171 179 174